Погода в Тоттори

Япония     35°30′15″N   134°13′39″E
темп.,
°C
ветер,
м/с
пор.,
м/с
влажн.,
%
обл.,
%
осадки,
мм/ч
давл.,
гПа
погр.,
м
28 июня, вт
вт2800:00+23ююв4691100 0.0 101390
03:00+22ююв4692100 0.0 101198
06:00+23ююв469064 0.0 1012127
09:00+28ю575990 0.0 1012515
12:00+31ююз57515 0.0 1011923
15:00+32ююз68445 0.0 10091109
18:00+27с127689 0.0 101037
21:00+24ююв458098 0.0 101179
29 июня, ср
ср2900:00+23ю468498 0.0 101087
03:00+23ю468697 0.0 1010115
06:00+23ююв478731 0.0 1011161
09:00+28ююз47615 0.0 1011601
12:00+31юз36511 0.0 10111126
15:00+27ссз3466100 0.0 1011509
18:00+26ссз11774 0.0 101160
21:00+23ююв22850 0.0 101317
30 июня, чт
чт3000:00+23ююв33810 0.0 101338
03:00+22ююв23830 0.0 101340
06:00+23ююв33820 0.0 101452
09:00+28сз12630 0.0 1014548
12:00+28с33630 0.0 1014593
15:00+27ссз23683 0.0 1014340
18:00+26ссз22780 0.0 1014135
21:00+23ю22842 0.1 101519
1 июля, пт
пт100:00+23ю22860 0.1 101515
03:00+22ююв22880 0.1 101517
06:00+23ююв22840 0.0 101629
09:00+28с11630 0.0 1016476
12:00+28ссв336516 0.0 1015678
15:00+27ссв347259 0.2 1014178
18:00+26всв22770 0.4 101453
21:00+24ююв34800 0.4 101557
2 июля, сб
сб200:00+23ююв34710 0.0 101460
03:00+22ююв456624 0.0 101464
06:00+23ююв4574100 0.0 101479
09:00+28ю35635 0.0 1014515
12:00+31ю24546 0.0 1013951
15:00+29ююв146119 0.1 1012796
18:00+28ю486695 0.1 1012472
21:00+24ююв3581100 0.1 101391